Location: Brede
(50.9167°N, 0.6000°E)
Time: 03:10:55
(UTC+00:00)

COSMOS 2428 - Pass Details

Date: 08 August 2020
Orbit: 844 x 859 km, 70.9° (Epoch: 27 September)

Event Time Altitude Azimuth Distance (km) Brightness Sun altitude
Rises 01:52:01 0° 318° (NW) 3,435 6.1 -18.9°
Reaches altitude 10° 01:55:28 10° 297° (WNW) 2,495 5.1 -18.7°
Maximum altitude 01:58:41 16° 263° (W) 2,124 4.4 -18.4°
Enters shadow 01:58:47 16° 261° (W) 2,125 4.4 -18.4°
